Tracking 30743 objects as of 20-Jun-2025
HD Live streaming from Space Station
objects crossing your sky now

DELTA 1 R/B

Track DELTA 1 R/B now!
10-day predictions


NORAD ID: 515
Int'l Code: 1962-068B
Perigee: 1,331.8 km
Apogee: 7,419.8 km
Inclination: 47.5 °
Period: 184.8 minutes
Semi major axis: 10746 km
RCS: 0.4654 m2 (medium)
Launch date: December 13, 1962
Source: United States (US)
Launch site: AIR FORCE EASTERN TEST RANGE (AFETR)

Note: This is a ROCKET BODY
Your satellite tracking list
Your tracking list is empty




NASA's NSSDC Master Catalog

Two Line Element Set (TLE):
1 00515U 62068B   25171.47511495 -.00000019  00000-0  00000-0 0  9996
2 00515  47.5084 101.4778 2832466 199.6328 146.8931  7.79261451779656
Source of the keplerian elements: AFSPC